Вернуться в каталог

TITAN 3C TRANSTAGE DEB

АктивенMEO
NORAD 43456·DEBRIS·🇺🇸 United States

Запущен Feb 9, 1969 с Cape Canaveral Space Force Station

Loading…

Ближайшие Пролёты (ближайшие 24 часа)

TLE

СвежийSource: Space-Track

Эпоха: Sep 10, 2026, 13:06 UTC

1 43456U 69013P   26253.54590689 -.00000238  00000-0  00000-0 0  9999
2 43456   2.2044  54.5171 0794626  70.7085 298.3678  1.02657741  7609

Отслеживайте TITAN 3C TRANSTAGE DEB в реальном времени с AllMySat

Download on the App Store